DW8838 Weather Reports


time (UTC)temp
F
wind
direction
speed
knots
gust
knots
rain 1hr
in
rain 24hr
in
rain mn
in
humidity
%
barometer
mb
20260508071517 52 180 1.7 2.6 0.00 0.00 0.00 82
20260508070517 52 248 0.9 2.6 0.00 0.00 0.00 84
20260508065517 51 180 0.9 1.7 0.00 0.00 0.00 86
20260508064517 51 0.0 0.0 0.00 0.00 0.00 87
20260508063517 50 0.0 0.0 0.00 0.00 0.00 87
20260508062517 50 158 0.9 1.7 0.00 0.00 0.00 87
20260508061517 50 0.0 0.0 0.00 0.00 0.00 87
20260508060517 50 0.0 0.0 0.00 0.00 0.00 87
20260508055517 50 0.0 0.9 0.00 0.00 0.00 87
20260508054537 50 0.0 0.0 0.00 0.00 0.00 88
20260508053517 49 0.0 0.0 0.00 0.00 0.00 88
20260508052517 49 0.0 0.9 0.00 0.00 0.00 88
20260508051537 49 0.0 0.0 0.00 0.00 0.00 88
20260508050517 49 0.0 0.9 0.00 0.00 0.00 88
20260508045517 49 0.0 0.9 0.00 0.00 0.00 88
20260508044517 49 158 0.9 1.7 0.00 0.00 0.00 88
20260508043537 49 0.0 0.0 0.00 0.00 0.00 88
20260508042516 49 0.0 0.0 0.00 0.00 0.00 88
20260508041516 49 0.0 0.9 0.00 0.00 0.00 87
20260508040517 49 0.0 0.0 0.00 0.00 0.00 87
20260508035517 49 0.0 0.0 0.00 0.00 0.00 87
20260508034517 49 0.0 0.0 0.00 0.00 0.00 86
20260508033537 50 135 0.9 2.6 0.00 0.00 0.00 86
20260508032516 50 0.0 0.9 0.00 0.00 0.00 86
20260508031536 50 158 1.7 2.6 0.00 0.00 0.00 86
20260508030516 50 180 0.9 2.6 0.00 0.00 0.00 86
20260508025516 50 180 2.6 3.5 0.00 0.00 0.00 86
20260508024516 50 158 0.9 0.9 0.00 0.00 0.00 86
20260508023557 50 158 0.9 2.6 0.00 0.00 0.00 85
20260508022516 50 203 0.9 1.7 0.00 0.00 0.00 85
20260508021536 50 0.0 0.9 0.00 0.00 0.00 85
20260508020516 50 0.0 1.7 0.00 0.00 0.00 85
20260508015516 50 0.0 0.0 0.00 0.00 0.00 84
20260508014516 50 0.0 0.9 0.00 0.00 0.00 84
20260508013516 50 0.0 0.9 0.00 0.00 0.00 84
20260508012517 50 0.0 0.0 0.00 0.00 0.00 84
20260508011516 50 158 0.9 1.7 0.00 0.00 0.00 84
20260508010517 50 180 1.7 3.5 0.00 0.00 0.00 84
20260508005556 50 158 0.9 1.7 0.00 0.00 0.00 84
20260508004516 51 180 0.9 1.7 0.00 0.00 0.00 83
20260508003516 51 180 2.6 3.5 0.00 0.00 0.00 83
20260508002536 51 0.0 0.9 0.00 0.00 0.00 82
20260508001536 51 180 1.7 2.6 0.00 0.00 0.00 82
20260508000516 51 158 3.5 4.3 0.00 0.00 0.00 82
20260507235516 51 158 2.6 3.5 0.00 0.00 0.00 82
20260507234516 51 158 1.7 2.6 0.00 0.00 0.00 82
20260507233516 51 158 1.7 3.5 0.00 0.00 0.00 82
20260507232516 51 113 1.7 3.5 0.00 0.00 0.00 81
20260507231516 51 135 2.6 5.2 0.00 0.00 0.00 81
20260507230536 51 158 1.7 2.6 0.00 0.00 0.00 80
20260507225516 52 203 1.7 3.5 0.00 0.00 0.00 79
20260507224516 52 158 1.7 3.5 0.00 0.00 0.00 78
20260507223516 52 180 1.7 4.3 0.00 0.00 0.00 77
20260507222516 52 135 1.7 4.3 0.00 0.00 0.00 77
20260507221516 52 135 3.5 7.8 0.00 0.00 0.00 76
20260507220516 53 135 2.6 6.1 0.00 0.00 0.00 76
20260507215536 53 158 1.7 3.5 0.00 0.00 0.00 75
20260507214516 53 158 1.7 3.5 0.00 0.00 0.00 75
20260507213516 53 135 1.7 3.5 0.00 0.00 0.00 75
20260507212536 53 158 2.6 4.3 0.00 0.00 0.00 74
20260507211516 53 135 2.6 4.3 0.00 0.00 0.00 73
20260507210516 53 135 1.7 4.3 0.00 0.00 0.00 72
20260507205516 53 180 2.6 5.2 0.00 0.00 0.00 71
20260507204536 54 135 3.5 5.2 0.00 0.00 0.00 70
20260507203516 54 135 3.5 7.8 0.00 0.00 0.00 69
20260507202516 54 158 1.7 2.6 0.00 0.00 0.00 68
20260507201516 54 135 2.6 4.3 0.00 0.00 0.00 68
20260507200516 54 158 1.7 2.6 0.00 0.00 0.00 67
20260507195516 55 135 0.9 1.7 0.00 0.00 0.00 66
20260507194516 55 135 2.6 5.2 0.00 0.00 0.00 65
20260507193536 55 158 3.5 5.2 0.00 0.00 0.00 64
20260507192516 55 158 1.7 5.2 0.00 0.00 0.00 62
20260507191516 55 135 1.7 3.5 0.00 0.00 0.00 62
20260507190516 55 135 0.9 1.7 0.00 0.00 0.00 62
20260507185516 56 135 3.5 6.1 0.00 0.00 0.00 61
20260507184556 56 135 3.5 6.1 0.00 0.00 0.00 60
20260507183516 56 135 0.9 2.6 0.00 0.00 0.00 59
20260507182515 56 135 2.6 4.3 0.00 0.00 0.00 58
20260507181516 57 135 1.7 4.3 0.00 0.00 0.00 57
20260507180516 57 135 0.9 1.7 0.00 0.00 0.00 57
20260507175537 57 135 3.5 6.1 0.00 0.00 0.00 56
20260507174517 57 135 3.5 4.3 0.00 0.00 0.00 56
20260507173516 57 158 1.7 3.5 0.00 0.00 0.00 55
20260507172517 57 203 2.6 3.5 0.00 0.00 0.00 55
20260507171517 58 135 2.6 3.5 0.00 0.00 0.00 55
20260507170516 58 135 4.3 7.0 0.00 0.00 0.00 55
20260507165516 58 135 3.5 5.2 0.00 0.00 0.00 55
20260507164516 58 135 4.3 7.0 0.00 0.00 0.00 55
20260507163537 58 180 3.5 5.2 0.00 0.00 0.00 55
20260507162516 59 45 0.9 1.7 0.00 0.00 0.00 55
20260507161516 59 135 4.3 7.8 0.00 0.00 0.00 54
20260507160517 59 113 0.9 2.6 0.00 0.00 0.00 53
20260507155516 59 158 2.6 4.3 0.00 0.00 0.00 54
20260507154517 59 113 3.5 7.0 0.00 0.00 0.00 55
20260507153517 58 158 1.7 3.5 0.00 0.00 0.00 55
20260507152517 59 113 2.6 5.2 0.00 0.00 0.00 54
20260507151516 58 135 2.6 4.3 0.00 0.00 0.00 54
20260507150516 57 180 3.5 5.2 0.00 0.00 0.00 55
20260507145517 57 158 3.5 4.3 0.00 0.00 0.00 55
20260507144516 57 180 2.6 4.3 0.00 0.00 0.00 56
20260507143517 57 158 4.3 7.0 0.00 0.00 0.00 55
20260507142516 57 180 1.7 2.6 0.00 0.00 0.00 54
20260507141516 57 158 2.6 4.3 0.00 0.00 0.00 56
20260507140517 57 225 2.6 4.3 0.00 0.00 0.00 58
20260507135516 57 225 2.6 4.3 0.00 0.00 0.00 56
20260507134516 57 203 2.6 4.3 0.00 0.00 0.00 56
20260507133536 57 158 0.9 2.6 0.00 0.00 0.00 56
20260507132516 57 225 4.3 6.1 0.00 0.00 0.00 56
20260507131516 58 180 1.7 3.5 0.00 0.00 0.00 53
20260507130516 58 203 2.6 4.3 0.00 0.00 0.00 52
20260507125516 57 180 4.3 6.1 0.00 0.00 0.00 56
20260507124516 56 113 1.7 2.6 0.00 0.00 0.00 59
20260507123516 56 135 1.7 2.6 0.00 0.00 0.00 59
20260507122516 57 180 1.7 4.3 0.00 0.00 0.00 60
20260507121516 57 180 3.5 6.1 0.00 0.00 0.00 60
20260507120536 56 135 2.6 5.2 0.00 0.00 0.00 59
20260507115516 56 158 3.5 5.2 0.00 0.00 0.00 62
20260507114516 56 180 1.7 5.2 0.00 0.00 0.00 63
20260507113516 56 135 1.7 4.3 0.00 0.00 0.00 64
20260507112516 56 180 3.5 6.1 0.00 0.00 0.00 65
20260507111516 55 180 3.5 5.2 0.00 0.00 0.00 66
20260507110516 55 180 2.6 4.3 0.00 0.00 0.00 67
20260507105516 55 158 3.5 4.3 0.00 0.00 0.00 69
20260507104516 54 135 2.6 4.3 0.00 0.00 0.00 70
20260507103516 54 135 2.6 5.2 0.00 0.00 0.00 71
20260507102536 54 180 1.7 4.3 0.00 0.00 0.00 71
20260507101516 53 135 2.6 4.3 0.00 0.00 0.00 72
20260507100536 52 180 1.7 2.6 0.00 0.00 0.00 73
20260507095516 52 158 1.7 3.5 0.00 0.00 0.00 74
20260507094516 51 135 2.6 3.5 0.00 0.00 0.00 75
20260507093516 52 203 0.9 1.7 0.00 0.00 0.00 76
20260507092556 51 158 1.7 3.5 0.00 0.00 0.00 77
20260507091516 51 180 3.5 6.1 0.00 0.00 0.00 77
20260507090516 51 225 2.6 6.1 0.00 0.00 0.00 78
20260507085516 50 135 3.5 7.0 0.00 0.00 0.00 79
20260507084519 50 158 2.6 4.3 0.00 0.00 0.00 79
20260507083516 50 158 2.6 5.2 0.00 0.00 0.00 80
20260507082516 50 135 0.9 1.7 0.00 0.00 0.00 81
20260507081516 49 158 3.5 5.2 0.00 0.00 0.00 81
20260507080516 49 135 1.7 2.6 0.00 0.00 0.00 83
20260507075516 49 158 1.7 4.3 0.00 0.00 0.00 84
20260507074516 48 158 1.7 3.5 0.00 0.00 0.00 84
20260507073515 48 203 0.9 3.5 0.00 0.00 0.00 84
20260507072516 48 158 2.6 4.3 0.00 0.00 0.00 83